• In Hungary
  • List of Countries
  • For 7 days
  • Water Temperature
  • Satellite Maps
  • Weather Map
  • News
  • Weather Widgets
  • user-avatar
    Login

    Hourly Weather Arendal

    Today, 21 November, Tuesday

    Time Temperature Precipitation Wind Pressure Humidity
    00:00 -2°C° 0 mm 2 mps 751 mmHg 78%
    01:00 -2°C° 0 mm 2 mps 752 mmHg 78%
    02:00 -3°C° 0 mm 2 mps 751 mmHg 77%
    03:00 -4°C° 0 mm 3 mps 751 mmHg 76%
    04:00 -4°C° 0 mm 3 mps 751 mmHg 75%
    05:00 -4°C° 0 mm 3 mps 751 mmHg 74%
    06:00 -4°C° 0 mm 3 mps 751 mmHg 73%
    07:00 -4°C° 0 mm 4 mps 751 mmHg 72%
    08:00 -4°C° 0 mm 4 mps 752 mmHg 71%
    09:00 -4°C° 0 mm 4 mps 752 mmHg 69%
    10:00 -4°C° 0 mm 4 mps 752 mmHg 68%
    11:00 -3°C° 0 mm 4 mps 752 mmHg 68%
    12:00 -3°C° 0 mm 4 mps 752 mmHg 68%
    13:00 -2°C° 0 mm 4 mps 752 mmHg 68%
    14:00 -2°C° 0.1 mm 4 mps 752 mmHg 71%
    15:00 -2°C° 0.1 mm 4 mps 752 mmHg 73%
    16:00 -3°C° 0.1 mm 4 mps 752 mmHg 76%
    17:00 -4°C° 0.1 mm 5 mps 751 mmHg 78%
    18:00 -4°C° 0.1 mm 5 mps 751 mmHg 80%
    19:00 -2°C° 0.1 mm 5 mps 751 mmHg 81%
    20:00 -3°C° 0.3 mm 6 mps 750 mmHg 84%
    21:00 -3°C° 0.3 mm 6 mps 750 mmHg 86%
    22:00 -3°C° 0.3 mm 6 mps 750 mmHg 88%
    23:00 -3°C° 1.1 mm 7 mps 749 mmHg 89%

    Tomorrow, 22 November, Wednesday

    Time Temperature Precipitation Wind Pressure Humidity
    00:00 -2°C° 1.1 mm 8 mps 748 mmHg 90%
    01:00 -2°C° 1.1 mm 8 mps 747 mmHg 92%
    02:00 -3°C° 1.9 mm 9 mps 746 mmHg 92%
    03:00 -3°C° 1.9 mm 9 mps 746 mmHg 92%
    04:00 -2°C° 1.9 mm 10 mps 745 mmHg 93%
    05:00 -2°C° 1.1 mm 10 mps 744 mmHg 93%
    06:00 -2°C° 1.1 mm 10 mps 744 mmHg 93%
    07:00 -2°C° 1.1 mm 10 mps 743 mmHg 93%
    08:00 -2°C° 1 mm 10 mps 743 mmHg 93%
    09:00 -2°C° 1 mm 10 mps 743 mmHg 94%
    10:00 -2°C° 1 mm 10 mps 742 mmHg 94%
    11:00 -1°C° 2.1 mm 9 mps 742 mmHg 94%
    12:00 -1°C° 2.1 mm 8 mps 742 mmHg 95%
    13:00 -1°C° 2.1 mm 7 mps 741 mmHg 95%
    14:00 -1°C° 1.7 mm 6 mps 741 mmHg 95%
    15:00 -1°C° 1.7 mm 6 mps 740 mmHg 96%
    16:00 0°C° 1.7 mm 5 mps 740 mmHg 96%
    17:00 0°C° 0.7 mm 5 mps 739 mmHg 95%
    18:00 0°C° 0.7 mm 5 mps 739 mmHg 95%
    19:00 -1°C° 0.7 mm 5 mps 738 mmHg 95%
    20:00 0°C° 1.5 mm 5 mps 738 mmHg 96%
    21:00 +1°C° 1.5 mm 6 mps 737 mmHg 97%
    22:00 +1°C° 1.5 mm 6 mps 737 mmHg 98%
    23:00 +1°C° 2.7 mm 8 mps 736 mmHg 98%

    Day after tomorrow, 23 November, Thursday

    Time Temperature Precipitation Wind Pressure Humidity
    00:00 +3°C° 2.7 mm 9 mps 736 mmHg 98%
    01:00 +5°C° 2.7 mm 10 mps 735 mmHg 98%
    02:00 +5°C° 1.7 mm 10 mps 735 mmHg 98%
    03:00 +5°C° 1.7 mm 10 mps 735 mmHg 98%
    04:00 +6°C° 1.7 mm 10 mps 735 mmHg 98%
    05:00 +6°C° 0.6 mm 10 mps 734 mmHg 98%
    06:00 +6°C° 0.6 mm 10 mps 734 mmHg 98%
    07:00 +6°C° 0.6 mm 10 mps 734 mmHg 98%
    08:00 +6°C° 1.2 mm 10 mps 734 mmHg 98%
    09:00 +7°C° 1.2 mm 10 mps 734 mmHg 98%
    10:00 +7°C° 1.2 mm 10 mps 734 mmHg 98%
    11:00 +7°C° 0.3 mm 9 mps 735 mmHg 97%
    12:00 +7°C° 0.3 mm 9 mps 735 mmHg 97%
    13:00 +7°C° 0.3 mm 8 mps 736 mmHg 97%
    14:00 +6°C° 0 mm 8 mps 736 mmHg 96%
    15:00 +5°C° 0 mm 7 mps 737 mmHg 96%
    16:00 +5°C° 0 mm 7 mps 738 mmHg 95%
    17:00 +5°C° 0 mm 8 mps 738 mmHg 92%
    18:00 +5°C° 0 mm 9 mps 739 mmHg 88%
    19:00 +5°C° 0 mm 10 mps 740 mmHg 84%
    20:00 +3°C° 0 mm 10 mps 741 mmHg 82%
    21:00 +3°C° 0 mm 10 mps 743 mmHg 80%
    22:00 +2°C° 0 mm 9 mps 744 mmHg 78%
    23:00 +2°C° 0 mm 9 mps 744 mmHg 81%

    24 November, Friday

    Time Temperature Precipitation Wind Pressure Humidity
    00:00 +2°C° 0 mm 8 mps 745 mmHg 83%
    01:00 +3°C° 0 mm 7 mps 746 mmHg 85%
    02:00 +3°C° 0.1 mm 7 mps 746 mmHg 87%
    03:00 +3°C° 0.1 mm 6 mps 745 mmHg 88%
    04:00 +3°C° 0.1 mm 6 mps 745 mmHg 90%
    05:00 +3°C° 0.7 mm 5 mps 745 mmHg 93%
    06:00 +4°C° 0.7 mm 4 mps 745 mmHg 95%
    07:00 +4°C° 0.7 mm 3 mps 744 mmHg 98%
    08:00 +4°C° 0.3 mm 4 mps 744 mmHg 98%
    09:00 +4°C° 0.3 mm 4 mps 743 mmHg 98%
    10:00 +3°C° 0.3 mm 5 mps 743 mmHg 99%
    11:00 +5°C° 0.5 mm 5 mps 743 mmHg 98%
    12:00 +5°C° 0.5 mm 5 mps 743 mmHg 97%
    13:00 +5°C° 0.5 mm 5 mps 743 mmHg 97%
    14:00 +5°C° 0 mm 5 mps 743 mmHg 94%
    15:00 +3°C° 0 mm 5 mps 743 mmHg 92%
    16:00 +3°C° 0 mm 5 mps 744 mmHg 90%
    17:00 +2°C° 0 mm 5 mps 745 mmHg 87%
    18:00 +2°C° 0 mm 5 mps 746 mmHg 84%
    19:00 +1°C° 0 mm 5 mps 747 mmHg 82%
    20:00 +1°C° 0 mm 5 mps 747 mmHg 81%
    21:00 0°C° 0 mm 4 mps 748 mmHg 81%
    22:00 -1°C° 0 mm 4 mps 749 mmHg 81%
    23:00 0°C° 0 mm 3 mps 749 mmHg 81%

    25 November, Saturday

    Time Temperature Precipitation Wind Pressure Humidity
    00:00 0°C° 0 mm 3 mps 749 mmHg 81%
    01:00 +1°C° 0 mm 2 mps 750 mmHg 81%
    02:00 -1°C° 0 mm 2 mps 750 mmHg 81%
    03:00 -1°C° 0 mm 2 mps 750 mmHg 81%
    04:00 -1°C° 0 mm 2 mps 749 mmHg 80%
    05:00 -1°C° 0 mm 3 mps 749 mmHg 80%
    06:00 -2°C° 0 mm 3 mps 749 mmHg 80%
    07:00 -2°C° 0 mm 3 mps 749 mmHg 80%
    08:00 -3°C° 0 mm 4 mps 749 mmHg 77%
    09:00 -2°C° 0 mm 4 mps 749 mmHg 75%
    10:00 -1°C° 0 mm 4 mps 749 mmHg 73%
    11:00 -1°C° 0.2 mm 5 mps 748 mmHg 71%
    12:00 -1°C° 0.2 mm 5 mps 747 mmHg 70%
    13:00 -1°C° 0.2 mm 6 mps 746 mmHg 69%
    14:00 -2°C° 0.6 mm 7 mps 744 mmHg 74%
    15:00 -2°C° 0.6 mm 8 mps 743 mmHg 79%
    16:00 -3°C° 0.6 mm 9 mps 742 mmHg 84%
    17:00 -3°C° 1.8 mm 9 mps 740 mmHg 86%
    18:00 -4°C° 1.8 mm 8 mps 739 mmHg 87%
    19:00 -4°C° 1.8 mm 8 mps 737 mmHg 89%
    20:00 -4°C° 0.9 mm 8 mps 737 mmHg 88%
    21:00 -4°C° 0.9 mm 8 mps 737 mmHg 87%
    22:00 -3°C° 0.9 mm 9 mps 737 mmHg 86%
    23:00 -3°C° 0.5 mm 9 mps 738 mmHg 81%

    26 November, Sunday

    Time Temperature Precipitation Wind Pressure Humidity
    00:00 -3°C° 0.5 mm 9 mps 739 mmHg 77%
    01:00 -2°C° 0.5 mm 10 mps 740 mmHg 72%
    02:00 -2°C° 0 mm 10 mps 741 mmHg 73%
    03:00 -1°C° 0 mm 9 mps 741 mmHg 75%
    04:00 -1°C° 0 mm 9 mps 742 mmHg 76%
    05:00 -1°C° 0 mm 9 mps 742 mmHg 77%
    06:00 0°C° 0 mm 9 mps 743 mmHg 78%
    07:00 0°C° 0 mm 8 mps 743 mmHg 79%
    08:00 0°C° 0 mm 8 mps 744 mmHg 79%
    09:00 0°C° 0 mm 8 mps 744 mmHg 79%
    10:00 +1°C° 0 mm 8 mps 744 mmHg 79%
    11:00 +1°C° 0 mm 8 mps 745 mmHg 78%
    12:00 +1°C° 0 mm 8 mps 745 mmHg 77%
    13:00 +1°C° 0 mm 8 mps 745 mmHg 76%
    14:00 +1°C° 0 mm 9 mps 746 mmHg 75%
    15:00 +1°C° 0 mm 10 mps 746 mmHg 75%
    16:00 +1°C° 0 mm 10 mps 746 mmHg 75%
    17:00 +1°C° 0 mm 11 mps 747 mmHg 75%
    18:00 +1°C° 0 mm 11 mps 747 mmHg 75%
    19:00 0°C° 0 mm 12 mps 747 mmHg 76%
    20:00 +1°C° 0 mm 11 mps 747 mmHg 75%
    21:00 +1°C° 0 mm 11 mps 748 mmHg 73%
    22:00 +1°C° 0 mm 11 mps 748 mmHg 72%
    23:00 +1°C° 0 mm 11 mps 748 mmHg 73%
    Show more